Fremont, MI

9:41 PM EDT on July 25, 2017 (GMT -0400)
Fremont

Weather History for KFFX - November, 2013

Change the Weather History Date:

Tuesday, November 12, 2013

  Actual Average (KMKG) Record (KMKG)
Temperature  
Mean Temperature 26 °F -  
Max Temperature 33 °F 44 °F 70 °F (1911)
Min Temperature 19 °F 31 °F 17 °F (1986)
Degree Days  
Heating Degree Days 39    
Moisture  
Dew Point 19 °F    
Average Humidity 76    
Maximum Humidity 99    
Minimum Humidity 49    
Precipitation  
Precipitation 0.00 in - - ()
Sea Level Pressure  
Sea Level Pressure 30.52 in    
Wind  
Wind Speed 7 mph (WNW)    
Max Wind Speed 21 mph    
Max Gust Speed 25 mph    
Visibility 10 miles    
Events Snow    
Averages and records for this station are not official NWS values.
T = Trace of Precipitation, MM = Missing Value Source: NWS Daily Summary

Daily Weather History Graph

Daily Weather History Graph

Search for Another Location

Airport or City:

Trip Planner

Search our weather history database for the weather conditions in past years. The results will help you decide how hot, cold, wet, or windy it might be!

Date:

Astronomy

Nov. 12, 2013 Rise Set
Actual Time 7:33 AM EST 5:21 PM EST
Civil Twilight 7:03 AM EST 5:52 PM EST
Nautical Twilight 6:28 AM EST 6:26 PM EST
Astronomical Twilight 5:55 AM EST 7:00 PM EST
Moon 2:43 PM EST (11/12) 2:14 AM EST (11/12)
Length of Visible Light 10h 49m
Length of Day
9h 47m
Waxing Gibbous, 76% of the Moon is Illuminated
Nov 12
Waxing Gibbous
Nov 17
Full
Nov 25
Last Quarter
Dec 2
New
Dec 9
First Quarter

Hourly Weather History & Observations

Time (EST) Temp. Windchill Dew Point Humidity Pressure Visibility Wind Dir Wind Speed Gust Speed Precip Events Conditions
12:15 AM 25.7 °F 19.0 °F 21.7 °F 85% 30.39 in 10.0 mi NW 5.8 mph - N/A   Scattered Clouds
12:35 AM 25.2 °F 18.3 °F 21.9 °F 87% 30.40 in 10.0 mi WNW 5.8 mph - N/A   Scattered Clouds
12:50 AM 24.6 °F 17.7 °F 21.4 °F 87% 30.40 in 10.0 mi WNW 5.8 mph - N/A   Scattered Clouds
1:10 AM 23.9 °F 16.8 °F 21.2 °F 89% 30.41 in 10.0 mi NW 5.8 mph - N/A   Clear
1:31 AM 24.1 °F 18.2 °F 21.0 °F 88% 30.42 in 10.0 mi WNW 4.6 mph - N/A   Clear
1:51 AM 23.9 °F 16.8 °F 21.2 °F 89% 30.42 in 10.0 mi NW 5.8 mph - N/A   Clear
2:11 AM 23.0 °F 17.0 °F 20.7 °F 91% 30.43 in 10.0 mi West 4.6 mph - N/A   Clear
2:31 AM 22.6 °F 18.0 °F 20.5 °F 91% 30.43 in 10.0 mi WNW 3.5 mph - N/A   Clear
2:51 AM 22.6 °F 18.0 °F 21.2 °F 94% 30.44 in 10.0 mi WNW 3.5 mph - N/A   Clear
3:11 AM 22.5 °F 17.8 °F 21.6 °F 96% 30.44 in 10.0 mi West 3.5 mph - N/A   Clear
3:31 AM 21.9 °F 15.7 °F 21.2 °F 97% 30.45 in 10.0 mi WNW 4.6 mph - N/A   Clear
3:52 AM 21.9 °F 15.7 °F 21.2 °F 97% 30.45 in 10.0 mi WNW 4.6 mph - N/A   Clear
4:12 AM 23.2 °F 16.0 °F 22.8 °F 99% 30.45 in 10.0 mi NW 5.8 mph - N/A   Scattered Clouds
4:32 AM 25.3 °F 16.7 °F 24.1 °F 95% 30.46 in 7.0 mi NNW 8.1 mph - N/A Snow Light Snow
4:52 AM 25.9 °F 19.2 °F 23.5 °F 91% 30.46 in 10.0 mi North 5.8 mph - N/A   Scattered Clouds
5:12 AM 26.1 °F 16.2 °F 23.4 °F 90% 30.48 in 10.0 mi NNW 10.4 mph - N/A   Scattered Clouds
5:32 AM 26.1 °F 18.4 °F 23.0 °F 88% 30.49 in 10.0 mi NNW 6.9 mph - N/A   Scattered Clouds
5:52 AM 25.3 °F 18.5 °F 22.6 °F 89% 30.50 in 10.0 mi NW 5.8 mph - N/A   Scattered Clouds
6:12 AM 23.5 °F 19.1 °F 21.7 °F 93% 30.50 in 10.0 mi NW 3.5 mph - N/A   Clear
6:32 AM 23.2 °F 17.2 °F 21.9 °F 95% 30.51 in 10.0 mi WNW 4.6 mph - N/A   Scattered Clouds
6:52 AM 25.5 °F 18.7 °F 24.6 °F 96% 30.52 in 4.0 mi WNW 5.8 mph - N/A Snow Light Snow
7:12 AM 26.2 °F 19.6 °F 25.3 °F 96% 30.52 in 10.0 mi NNW 5.8 mph - N/A Snow Light Snow
7:33 AM 25.3 °F 18.5 °F 23.5 °F 93% 30.53 in 10.0 mi NW 5.8 mph - N/A   Scattered Clouds
7:53 AM 26.4 °F 18.0 °F 24.8 °F 94% 30.54 in 10.0 mi NW 8.1 mph - N/A   Mostly Cloudy
8:13 AM 26.2 °F 18.6 °F 23.9 °F 91% 30.55 in 10.0 mi WNW 6.9 mph - N/A   Mostly Cloudy
8:33 AM 26.8 °F 22.8 °F 24.6 °F 92% 30.56 in 10.0 mi West 3.5 mph - N/A   Scattered Clouds
8:53 AM 27.9 °F 21.5 °F 25.2 °F 90% 30.56 in 10.0 mi WNW 5.8 mph - N/A   Mostly Cloudy
9:13 AM 28.2 °F 20.2 °F 23.0 °F 81% 30.57 in 10.0 mi WNW 8.1 mph - N/A   Scattered Clouds
9:33 AM 29.3 °F 19.1 °F 22.3 °F 75% 30.57 in 10.0 mi NW 12.7 mph 17.3 mph N/A   Scattered Clouds
9:53 AM 30.0 °F 20.5 °F 21.4 °F 70% 30.57 in 10.0 mi WNW 11.5 mph 19.6 mph N/A   Scattered Clouds
10:13 AM 30.9 °F 19.8 °F 20.5 °F 65% 30.57 in 10.0 mi NW 16.1 mph - N/A   Clear
10:33 AM 31.5 °F 22.3 °F 20.3 °F 63% 30.57 in 10.0 mi WNW 11.5 mph - N/A   Scattered Clouds
10:54 AM 32.0 °F 23.0 °F 20.7 °F 63% 30.58 in 10.0 mi WNW 11.5 mph - N/A   Mostly Cloudy
11:14 AM 32.0 °F 22.1 °F 20.7 °F 63% 30.57 in 10.0 mi NW 13.8 mph 21.9 mph N/A   Scattered Clouds
11:34 AM 32.0 °F 23.0 °F 20.7 °F 63% 30.57 in 10.0 mi WNW 11.5 mph 18.4 mph N/A   Mostly Cloudy
11:54 AM 32.4 °F 20.3 °F 18.7 °F 57% 30.57 in 10.0 mi West 20.7 mph 25.3 mph N/A   Mostly Cloudy
12:14 PM 32.4 °F 22.5 °F 16.5 °F 52% 30.57 in 10.0 mi West 13.8 mph 24.2 mph N/A   Scattered Clouds
12:34 PM 32.0 °F 20.8 °F 14.7 °F 49% 30.56 in 10.0 mi West 17.3 mph 25.3 mph N/A   Scattered Clouds
12:54 PM 32.5 °F 20.8 °F 16.3 °F 51% 30.56 in 10.0 mi West 19.6 mph 23.0 mph N/A   Mostly Cloudy
1:14 PM 33.3 °F 22.8 °F 17.2 °F 52% 30.56 in 10.0 mi West 16.1 mph 23.0 mph N/A   Overcast
1:35 PM 31.6 °F 20.4 °F 16.0 °F 52% 30.55 in 10.0 mi WNW 17.3 mph 24.2 mph N/A   Overcast
1:55 PM 30.9 °F 21.2 °F 15.3 °F 52% 30.55 in 10.0 mi WNW 12.7 mph - N/A   Overcast
2:15 PM 31.1 °F 20.9 °F 15.8 °F 53% 30.55 in 10.0 mi NW 13.8 mph 19.6 mph N/A   Overcast
2:35 PM 32.9 °F 23.2 °F 16.3 °F 51% 30.55 in 10.0 mi West 13.8 mph 18.4 mph N/A   Overcast
2:55 PM 33.6 °F 22.9 °F 16.3 °F 49% 30.55 in 10.0 mi West 17.3 mph 21.9 mph N/A   Overcast
3:15 PM 31.8 °F 21.4 °F 14.9 °F 50% 30.55 in 10.0 mi West 15.0 mph - N/A   Overcast
3:35 PM 31.1 °F 20.9 °F 14.9 °F 51% 30.55 in 10.0 mi West 13.8 mph 20.7 mph N/A   Mostly Cloudy
3:50 PM 29.3 °F 18.2 °F 14.4 °F 54% 30.55 in 10.0 mi West 15.0 mph 23.0 mph N/A   Mostly Cloudy
4:10 PM 28.9 °F 19.2 °F 15.3 °F 57% 30.55 in 10.0 mi West 11.5 mph - N/A   Mostly Cloudy
4:31 PM 29.3 °F 20.8 °F 15.1 °F 55% 30.54 in 10.0 mi West 9.2 mph - N/A   Overcast
4:51 PM 28.9 °F 21.1 °F 14.5 °F 55% 30.54 in 10.0 mi West 8.1 mph 11.5 mph N/A   Overcast
5:11 PM 28.8 °F 20.2 °F 15.1 °F 57% 30.55 in 10.0 mi WNW 9.2 mph - N/A   Overcast
5:31 PM 28.4 °F 19.7 °F 15.3 °F 58% 30.55 in 10.0 mi WNW 9.2 mph - N/A   Overcast
5:51 PM 28.4 °F 21.2 °F 16.2 °F 60% 30.55 in 10.0 mi West 6.9 mph - N/A   Overcast
6:11 PM 27.5 °F 22.2 °F 16.3 °F 63% 30.55 in 10.0 mi West 4.6 mph - N/A   Overcast
6:31 PM 26.8 °F 22.8 °F 16.3 °F 65% 30.55 in 10.0 mi West 3.5 mph - N/A   Mostly Cloudy
6:51 PM 25.9 °F 21.7 °F 16.7 °F 68% 30.55 in 10.0 mi West 3.5 mph - N/A   Scattered Clouds
7:12 PM 25.7 °F - 16.3 °F 68% 30.54 in 10.0 mi Calm Calm - N/A   Clear
7:32 PM 24.8 °F - 17.6 °F 74% 30.54 in 10.0 mi Calm Calm - N/A   Scattered Clouds
7:52 PM 24.3 °F 19.9 °F 17.4 °F 75% 30.54 in 10.0 mi SSW 3.5 mph - N/A   Scattered Clouds
8:12 PM 23.2 °F - 18.0 °F 80% 30.53 in 10.0 mi Calm Calm - N/A   Scattered Clouds
8:32 PM 21.2 °F - 16.9 °F 83% 30.52 in 10.0 mi Calm Calm - N/A   Clear
8:52 PM 22.1 °F - 18.3 °F 85% 30.51 in 10.0 mi Calm Calm - N/A   Scattered Clouds
9:12 PM 20.1 °F - 17.8 °F 91% 30.51 in 10.0 mi Calm Calm - N/A   Clear
9:32 PM 20.3 °F 15.4 °F 17.6 °F 89% 30.51 in 10.0 mi South 3.5 mph - N/A   Clear
9:52 PM 19.8 °F 14.7 °F 16.5 °F 87% 30.51 in 10.0 mi South 3.5 mph - N/A   Clear
10:12 PM 19.9 °F - 17.2 °F 89% 30.52 in 10.0 mi Calm Calm - N/A   Clear
10:32 PM 21.0 °F 14.6 °F 19.4 °F 93% 30.51 in 10.0 mi SW 4.6 mph - N/A   Clear
10:53 PM 22.8 °F 16.7 °F 18.0 °F 82% 30.50 in 10.0 mi SW 4.6 mph - N/A   Clear
11:13 PM 22.1 °F 15.9 °F 17.8 °F 83% 30.50 in 10.0 mi SW 4.6 mph - N/A   Clear
11:33 PM 22.8 °F 16.7 °F 17.6 °F 80% 30.50 in 10.0 mi SSW 4.6 mph - N/A   Clear
11:53 PM 21.9 °F 15.7 °F 17.6 °F 83% 30.49 in 10.0 mi South 4.6 mph - N/A   Clear